Terug naar catalogus

STARLINK-34947

ActiefCommunicatieSSO
NORAD 65184·PAYLOAD·🇺🇸 United States

Gelanceerd Aug 14, 2025 vanaf Vandenberg Space Force Base

Loading…

Volgende Passages (komende 24 uur)

TLE

VersSource: CelesTrak SupGP

Epoch: Sep 15, 2026, 03:16 UTC

1 65184C 25175L   26258.13659722  .00009098  00000+0  28261-3 0  2587
2 65184  97.2850 127.1361 0001586  87.4672  35.8690 15.33412108    12

Volg STARLINK-34947 in realtime met AllMySat

Download on the App Store